Location: Amsterdam
(42.9386°N, 74.1886°W)
Time: 16:30:07
(UTC-04:00)

OTV 5 (USA 277) - Pass Details

Date: 01 April 2019
Orbit: 309 x 326 km, 54.5° (Epoch: 21 April)

Event Time Altitude Azimuth Distance (km) Brightness Sun altitude
Exits shadow 05:55:15 - 216° (SW) 1,323 ? -8.8°
Reaches altitude 10° 05:55:33 10° 215° (SW) 1,201 ? -8.7°
Maximum altitude 05:58:09 52° 138° (SE) 397 ? -8.2°
Drops below altitude 10° 06:00:46 10° 60° (ENE) 1,204 ? -7.8°
Sets 06:02:44 0° 55° (NE) 2,034 ? -7.4°
